EHI
2 2 3 4 4 3 2 4 8 9 8 7 5 4 3 3 3 3 3 3 2 2 2 3 3 3 3 4 5 5 5 5 4 1 0 0 0 0 0 0 0 0 0
1 1 2 3 3 2 1 3 6 7 7 6 4 3 3 3 3 3 3 3 2 2 2 3 3 3 3 3 4 4 4 4 3 1 0 0 0 0 0 0 0 0 0
0 0 1 2 2 1 1 3 5 5 4 4 3 3 3 3 3 3 3 3 2 2 2 2 3 3 3 3 3 3 3 3 2 1 0 0 0 0 0 0 0 0 0
0 0 1 2 1 1 2 3 3 3 2 2 1 1 2 2 2 2 2 2 1 1 1 1 2 3 3 2 2 2 2 2 1 0 0 0 0 0 0 0 0 0 0
0 0 1 2 1 1 2 2 1 1 1 0 0 0 0 0 1 1 1 1 0 0 0 0 1 2 1 1 1 1 1 1 0 0 0 0 0 0 0 0 0 0 0
0 0 1 1 0 0 1 1 1 0 0 0 0 0 0 0 0 0 0 0 0 0 0 0 0 0 0 0 0 0 0 0 0 0 0 0 0 0 0 0 0 0 0
0 0 0 0 0 0 0 0 0 0 0 0 0 0 0 0 0 0 0 0 0 0 0 0 0 0 0 0 0 0 0 0 0 0 0 0 0 0 0 0 0 0 0
0 0 0 0 0 0 0 0 0 0 0 0 0 0 0 0 0 0 0 0 0 0 0 0 0 0 0 0 0 0 0 0 0 0 0 0 0 0 0 0 0 0 0
0 0 0 0 0 0 0 0 0 0 0 0 0 0 0 0 0 0 0 0 0 0 0 0 0 0 0 0 0 0 0 0 0 0 0 0 0 0 0 0 0 0 0
0 0 0 0 0 0 0 0 0 0 0 0 0 0 0 0 0 0 0 0 0 0 0 0 0 0 0 0 0 0 0 0 0 0 0 0 0 0 0 0 0 0 0
0 0 0 0 0 0 0 0 0 0 0 0 0 0 0 0 0 0 0 0 0 0 0 0 0 0 0 0 0 0 0 0 0 0 0 0 0 0 0 0 0 0 0
0 0 0 0 0 0 0 0 0 0 0 0 0 0 0 0 0 0 0 0 0 0 0 0 0 0 0 0 0 0 0 0 0 0 0 0 0 0 0 0 0 0 0
0 0 0 0 0 0 0 0 0 0 0 0 0 0 0 0 0 0 0 0 0 0 0 0 0 0 0 0 0 0 0 0 0 0 0 0 0 0 0 0 0 0 0
0 0 0 0 0 0 0 0 0 0 0 0 0 0 0 0 0 0 0 0 0 0 0 0 0 0 0 0 0 0 0 0 0 0 0 0 0 0 0 0 0 0 0
0 0 0 0 0 0 0 0 0 0 0 0 0 0 0 0 0 0 0 0 0 0 0 0 0 0 0 0 0 0 0 0 0 0 0 0 0 0 0 0 0 0 0
0 0 0 0 0 0 0 0 0 0 0 0 0 0 0 0 0 0 0 0 0 0 0 0 0 0 0 0 0 0 0 0 0 0 0 0 0 0 0 0 0 0 0
0 0 0 0 0 0 0 0 0 0 0 0 0 0 0 0 0 0 0 0 0 0 0 0 0 0 0 0 0 0 0 0 0 0 0 0 0 0 0 0 0 0 0
0 0 0 0 0 0 0 0 0 0 0 0 0 0 0 0 0 0 0 0 0 0 0 0 0 0 0 0 0 0 0 0 0 0 0 0 0 0 0 0 0 0 0
0 0 0 0 0 0 0 0 0 0 0 0 0 0 0 0 0 0 0 0 0 0 0 0 0 0 0 0 0 0 0 0 0 0 0 0 0 0 0 0 0 0 0
0 0 0 0 0 0 0 0 0 0 0 0 0 0 0 0 0 0 0 0 0 0 0 0 0 0 0 0 0 0 0 0 0 0 0 0 0 0 0 0 0 0 0
0 0 0 0 0 0 0 0 0 0 0 0 0 0 0 0 0 0 0 0 0 0 0 0 0 0 0 0 0 0 0 0 0 0 0 0 0 0 0 0 0 0 0
0 0 0 0 0 0 0 0 0 0 0 0 0 0 0 0 0 0 0 0 0 0 0 0 0 0 0 0 0 0 0 0 0 0 0 0 0 0 0 0 0 0 0
0 0 0 0 0 0 0 0 0 0 0 0 0 0 0 0 0 0 0 0 0 0 0 0 0 0 0 0 0 0 0 0 0 0 0 0 0 0 0 0 0 0 0
0 0 0 0 0 0 0 0 0 0 0 0 0 0 0 0 0 0 0 0 0 0 0 0 0 0 0 0 0 0 0 0 0 0 0 0 0 0 0 0 0 0 0
0 0 0 0 0 0 0 0 0 0 0 0 0 0 0 0 0 0 0 0 0 0 0 0 0 0 0 0 0 0 0 0 0 0 0 0 0 0 0 0 0 0 0
0 0 0 0 0 0 0 0 0 0 0 0 0 0 0 0 0 0 0 0 0 0 0 0 0 0 0 0 0 0 0 0 0 0 0 0 0 0 0 0 0 0 0
Wind_Speed
3 4 5 5 5 4 5 5 5 5 4 3 3 2 2 2 2 1 1 1 1 1 1 2 2 2 2 3 2 2 4 4 3 2 2 3 5 6 6 6 6 8 10
2 3 3 3 4 3 3 4 4 3 3 2 1 1 1 1 1 2 2 2 2 2 2 2 2 2 2 2 2 2 2 3 2 2 1 2 2 4 7 6 7 8 7
2 1 2 2 3 3 2 3 3 3 2 2 2 2 3 3 3 3 3 3 3 3 2 3 3 3 2 2 3 3 3 3 3 3 3 3 4 2 2 6 7 7 6
2 2 3 2 2 2 2 3 2 2 2 2 3 3 2 1 2 3 3 4 4 3 3 3 3 3 2 3 3 3 2 3 3 3 4 4 3 2 1 2 4 7 7
2 3 3 3 2 2 2 2 3 2 2 2 2 2 1 2 2 3 4 4 4 4 4 3 3 3 3 3 3 3 3 2 3 2 2 3 1 2 2 2 2 2 4
1 1 2 3 3 3 3 3 3 2 2 2 2 1 2 3 3 4 4 4 3 4 4 3 2 2 2 3 4 3 4 3 3 2 2 2 2 2 2 2 2 2 2
1 2 3 3 3 3 3 3 3 2 3 3 3 2 2 2 3 3 3 4 3 3 5 4 3 3 3 3 3 3 3 3 3 3 2 2 2 1 2 2 2 1 1
2 3 3 3 3 3 3 3 3 2 3 3 4 3 3 2 3 4 3 4 3 4 5 4 4 4 4 3 3 3 3 3 3 3 2 2 2 2 2 2 2 1 0
3 4 3 3 2 2 2 2 2 2 3 4 4 4 4 4 4 5 4 4 4 5 4 4 4 4 4 4 3 3 4 3 3 3 3 2 1 1 1 1 2 3 2
4 4 3 3 2 2 2 2 2 3 3 4 4 4 4 5 5 4 5 5 5 5 5 4 4 5 5 4 4 3 4 3 3 2 2 2 1 1 2 2 2 2 3
3 2 1 2 2 3 3 3 4 4 4 4 4 5 5 5 5 4 5 6 5 5 5 5 5 5 5 5 4 4 4 4 4 3 3 3 2 2 2 2 2 2 3
2 1 1 2 3 3 3 4 4 4 4 5 5 5 6 5 5 6 6 6 6 6 5 5 5 5 5 5 5 6 5 4 5 4 3 4 3 3 2 2 3 3 3
2 1 2 2 3 3 4 4 4 5 5 5 5 6 6 6 6 6 7 6 6 6 6 5 5 6 5 5 5 6 5 5 5 5 5 5 4 4 2 3 3 3 3
1 1 2 3 4 4 4 5 5 5 6 5 6 6 7 7 7 7 7 7 6 6 6 6 6 6 5 5 5 5 5 5 5 5 5 6 6 6 5 4 4 3 3
1 1 2 3 4 4 4 4 5 6 6 6 6 6 7 7 7 7 7 7 6 7 6 6 6 6 5 6 6 6 6 5 5 4 5 6 8 8 6 4 4 4 3
1 2 3 4 4 4 4 5 6 6 6 6 6 7 7 7 7 7 7 7 7 6 6 6 6 6 6 7 9 6 5 5 5 5 5 5 6 8 8 8 8 7 6
1 2 3 3 4 4 4 5 6 6 6 6 7 7 7 7 7 8 7 7 7 6 6 6 6 6 8 10 10 10 6 5 5 5 5 5 5 6 5 6 7 7 8
1 2 3 3 3 3 4 5 6 6 6 7 7 7 7 8 8 7 7 7 6 6 6 6 6 6 8 10 10 11 7 5 6 6 7 6 5 6 6 5 4 4 4
1 2 2 2 3 4 5 5 6 6 7 7 8 8 8 8 8 8 8 7 6 6 5 5 5 6 8 9 10 9 4 4 5 6 6 7 6 8 9 6 5 4 3
1 1 2 2 3 5 5 5 6 7 7 8 8 8 8 8 8 8 7 6 5 5 5 5 5 5 6 7 8 7 3 4 4 4 5 8 8 9 10 7 6 6 4
0 1 2 3 4 5 4 5 6 7 8 8 8 8 8 7 7 6 5 6 5 5 5 5 4 4 4 6 6 5 3 4 4 3 3 4 8 9 10 8 6 8 6
1 2 2 4 5 5 4 6 7 8 7 7 8 8 8 7 6 6 6 5 5 5 5 4 4 3 3 3 3 4 4 4 3 3 3 4 7 9 9 8 8 10 7
1 2 2 4 5 5 4 5 7 7 7 8 8 8 8 7 6 5 6 5 4 3 4 3 3 3 2 2 3 2 3 4 3 2 4 5 7 7 6 8 9 7 5
1 1 2 4 5 6 5 5 6 6 7 8 8 7 7 7 6 5 4 3 4 4 3 3 3 3 2 2 2 1 1 1 1 1 2 3 4 4 4 4 4 4 5
2 1 2 3 5 6 6 6 6 6 7 7 7 7 6 6 6 5 4 4 3 3 3 3 3 2 3 3 2 1 1 1 1 1 1 1 1 2 2 2 3 3 4
1 1 3 4 5 5 6 6 6 6 6 6 6 5 5 5 5 5 5 6 5 6 5 4 4 3 4 4 3 3 3 3 2 2 2 2 3 3 4 4 4 4 5
Wind_Direction
94 94 97 98 89 73 69 62 57 43 42 36 28 20 358 352 350 334 308 295 283 265 230 249 258 246 235 236 235 243 244 235 210 207 249 254 232 223 216 208 201 205 210
68 85 100 92 92 90 83 77 68 58 54 52 41 15 326 318 314 326 330 310 289 274 253 236 249 251 245 249 240 233 243 246 204 180 191 262 275 246 224 204 205 206 204
147 140 110 102 98 92 97 93 84 69 57 53 43 22 14 358 354 340 324 310 298 284 271 254 248 250 240 242 237 220 231 242 235 198 186 190 223 245 243 215 209 199 197
146 143 128 115 111 113 102 95 89 64 45 55 60 50 33 335 297 296 300 306 304 294 274 257 247 242 240 243 246 226 220 229 238 233 221 210 185 184 239 260 212 202 201
175 158 149 131 107 99 95 84 65 38 21 37 54 49 1 287 291 309 320 318 314 306 299 273 250 244 243 242 240 238 232 229 231 220 220 218 208 188 172 213 221 210 209
187 148 106 89 68 63 64 62 57 24 12 22 20 21 333 319 326 323 316 311 307 305 305 290 264 249 249 250 245 237 233 231 221 216 212 182 174 187 168 186 203 206 222
98 79 68 57 46 44 40 41 48 17 355 350 333 319 307 300 296 294 292 298 300 299 298 296 273 258 248 249 246 243 239 231 220 210 213 204 192 174 168 164 189 204 247
90 86 79 70 60 55 44 35 31 353 334 334 319 312 310 293 283 282 277 278 273 274 282 288 280 269 257 254 248 250 245 230 228 226 212 218 205 192 172 169 159 145 351
89 86 78 69 60 49 28 19 13 337 323 321 314 312 311 300 289 287 282 282 280 285 292 291 290 284 266 252 242 245 253 242 230 226 216 206 208 180 185 171 157 153 159
80 78 67 50 34 24 360 358 349 321 311 316 312 323 308 300 295 293 292 288 285 287 292 288 284 278 270 257 244 243 245 241 238 228 217 209 198 186 167 180 174 155 154
107 91 50 19 10 1 354 343 335 328 319 314 306 308 303 300 301 298 291 286 282 284 283 278 274 270 264 255 244 243 237 234 242 238 217 218 199 194 178 168 167 166 158
118 89 34 8 357 345 333 327 320 316 307 306 309 306 303 304 303 295 289 286 282 278 275 276 272 268 264 251 240 244 240 228 232 232 218 215 205 201 188 177 179 174 177
96 44 4 342 324 315 313 312 309 308 307 310 310 308 304 300 294 290 288 287 284 282 280 277 270 267 261 252 246 237 233 225 225 222 214 212 197 199 194 187 183 186 183
102 39 326 309 305 305 305 310 311 307 312 310 306 303 299 293 288 287 287 285 282 279 276 271 266 263 260 251 248 242 235 228 221 219 213 207 198 194 192 195 189 184 174
55 350 309 298 306 312 314 316 309 306 309 310 306 299 295 293 292 291 289 288 284 284 275 271 269 263 258 251 244 239 237 229 224 225 219 209 202 196 192 190 182 174 169
300 310 315 317 315 315 315 316 311 308 309 309 303 300 302 302 299 295 292 290 286 283 278 272 268 266 267 266 259 245 231 221 217 224 224 220 208 204 203 201 189 176 176
284 311 313 304 301 302 306 311 308 309 312 309 306 305 305 304 300 300 301 291 286 281 278 272 266 262 262 263 259 249 231 219 215 214 214 223 218 201 190 204 205 200 200
290 300 298 302 302 303 310 312 314 317 314 311 309 309 308 304 302 299 295 289 282 280 276 274 267 261 265 263 255 247 231 220 217 213 210 209 214 209 190 192 194 200 207
227 258 279 285 305 313 313 320 321 319 316 314 312 311 310 306 304 303 298 292 288 287 280 273 267 262 269 266 253 235 211 212 218 217 212 206 210 216 199 182 186 202 227
240 295 313 324 324 314 318 326 321 320 315 312 309 308 307 304 302 299 295 292 287 285 287 286 276 267 271 271 253 224 201 206 214 216 215 212 207 208 198 185 184 199 217
352 356 351 330 310 311 327 326 320 314 306 306 308 310 310 304 299 300 298 301 303 302 299 297 297 289 283 282 260 224 195 199 202 202 208 215 208 207 208 197 193 204 198
4 349 342 321 310 316 328 324 316 306 308 311 314 315 314 313 319 315 313 314 316 314 311 307 309 306 304 298 268 234 212 196 188 198 200 210 209 211 213 205 208 204 191
301 317 328 322 317 315 318 314 306 311 317 320 319 317 318 317 315 316 317 320 325 322 317 319 315 313 321 323 313 283 241 218 196 203 203 209 212 210 213 215 207 193 179
283 310 330 326 316 312 314 303 303 314 321 321 319 319 320 320 323 323 317 315 319 320 319 321 316 312 320 328 331 324 310 254 206 214 214 220 213 200 195 196 200 190 183
264 279 297 301 303 310 315 313 314 322 323 321 319 319 316 317 319 319 310 304 285 277 280 278 279 294 301 293 287 253 256 234 218 177 146 157 177 193 196 195 197 193 188
243 279 299 302 304 314 317 315 317 321 321 320 319 315 313 315 316 315 316 310 296 296 293 274 261 265 266 281 283 276 268 258 219 159 180 202 203 208 210 213 211 203 204